Location: Nasgenstadt
(48.2786°N, 9.7553°E)
Time: 05:10:15
(UTC+01:00)

ISS - Pass Details

Date: 15 November 2017
Orbit: 402 x 407 km, 51.6° (Epoch: 21 November)

Event Time Altitude Azimuth Distance (km) Brightness Sun altitude
Exits shadow 04:55:36 28° 110° (ESE) 790 -1.8 -25.3°
Drops below altitude 10° 04:57:16 10° 111° (ESE) 1,453 -0.1 -25.0°
Sets 04:59:21 0° 112° (ESE) 2,309 1.1 -24.6°
